| time (UTC) | temp C | wind direction | speed KPH | gust KPH | rain 1hr cm | rain 24hr cm | rain mn cm | humidity % | barometer mb |
| 20260506044709 | 10 | 70 | 6.4 | 20.9 | 0.00 | 0.00 | 0.00 | 79 | 1008.9 |
| 20260506044219 | 10 | 342 | 6.4 | 22.5 | 0.00 | 0.00 | 0.00 | 79 | 1008.9 |
| 20260506042715 | 10 | 11 | 9.7 | 25.7 | 0.00 | 0.00 | 0.00 | 79 | 1008.8 |
| 20260506042218 | 10 | 325 | 9.7 | 25.7 | 0.00 | 0.00 | 0.00 | 79 | 1008.8 |
| 20260506041719 | 10 | 349 | 8.0 | 24.1 | 0.00 | 0.00 | 0.00 | 79 | 1008.8 |
| 20260506041208 | 10 | 0 | 8.0 | 24.1 | 0.00 | 0.00 | 0.00 | 79 | 1008.9 |
| 20260506040708 | 10 | 38 | 6.4 | 24.1 | 0.00 | 0.00 | 0.00 | 79 | 1008.8 |
| 20260506035714 | 10 | 13 | 8.0 | 22.5 | 0.00 | 0.00 | 0.00 | 79 | 1008.9 |
| 20260506035215 | 10 | 30 | 8.0 | 22.5 | 0.00 | 0.00 | 0.00 | 79 | 1008.8 |
| 20260506034713 | 10 | 13 | 8.0 | 20.9 | 0.00 | 0.00 | 0.00 | 79 | 1008.8 |
| 20260506034208 | 10 | 313 | 8.0 | 20.9 | 0.00 | 0.00 | 0.00 | 79 | 1008.9 |
| 20260506032717 | 10 | 342 | 6.4 | 16.1 | 0.00 | 0.00 | 0.00 | 79 | 1009.0 |
| 20260506031705 | 10 | 315 | 6.4 | 19.3 | 0.00 | 0.00 | 0.00 | 79 | 1009.0 |
| 20260506030706 | 10 | 335 | 8.0 | 19.3 | 0.00 | 0.00 | 0.00 | 77 | 1009.1 |
| 20260506030213 | 10 | 67 | 6.4 | 19.3 | 0.00 | 0.00 | 0.00 | 77 | 1009.1 |
| 20260506025714 | 10 | 332 | 4.8 | 17.7 | 0.00 | 0.00 | 0.00 | 76 | 1009.3 |
| 20260506025217 | 10 | 331 | 6.4 | 19.3 | 0.00 | 0.00 | 0.00 | 76 | 1009.3 |
| 20260506024740 | 10 | 355 | 8.0 | 19.3 | 0.00 | 0.00 | 0.00 | 76 | 1009.3 |
| 20260506024211 | 10 | 17 | 6.4 | 17.7 | 0.00 | 0.00 | 0.00 | 76 | 1009.3 |
| 20260506023712 | 10 | 37 | 6.4 | 17.7 | 0.00 | 0.00 | 0.00 | 76 | 1009.4 |
| 20260506023219 | 10 | 336 | 6.4 | 17.7 | 0.00 | 0.00 | 0.00 | 76 | 1009.3 |
| 20260506022713 | 10 | 333 | 6.4 | 17.7 | 0.00 | 0.00 | 0.00 | 77 | 1009.4 |
| 20260506022213 | 10 | 55 | 4.8 | 17.7 | 0.00 | 0.00 | 0.00 | 78 | 1009.4 |
| 20260506020716 | 10 | 36 | 4.8 | 16.1 | 0.00 | 0.00 | 0.00 | 79 | 1009.5 |
| 20260506020214 | 10 | 19 | 3.2 | 16.1 | 0.00 | 0.00 | 0.00 | 79 | 1009.5 |
| 20260506015219 | 10 | 47 | 3.2 | 14.5 | 0.00 | 0.00 | 0.00 | 79 | 1009.5 |
| 20260506014718 | 10 | 15 | 3.2 | 16.1 | 0.00 | 0.00 | 0.00 | 79 | 1009.5 |
| 20260506013708 | 10 | 350 | 4.8 | 16.1 | 0.00 | 0.00 | 0.00 | 79 | 1009.5 |
| 20260506013207 | 10 | 30 | 4.8 | 19.3 | 0.00 | 0.00 | 0.00 | 79 | 1009.5 |
| 20260506012715 | 10 | 51 | 4.8 | 19.3 | 0.00 | 0.00 | 0.00 | 79 | 1009.5 |
| 20260506011719 | 10 | 41 | 6.4 | 24.1 | 0.00 | 0.00 | 0.00 | 79 | 1009.6 |
| 20260506011209 | 10 | 18 | 6.4 | 24.1 | 0.00 | 0.00 | 0.00 | 78 | 1009.5 |
| 20260506010207 | 10 | 341 | 6.4 | 20.9 | 0.00 | 0.00 | 0.00 | 78 | 1009.5 |
| 20260506005707 | 10 | 11 | 6.4 | 20.9 | 0.00 | 0.00 | 0.00 | 78 | 1009.6 |
| 20260506005211 | 10 | 18 | 4.8 | 17.7 | 0.00 | 0.00 | 0.00 | 78 | 1009.6 |
| 20260506004719 | 10 | 26 | 4.8 | 17.7 | 0.00 | 0.00 | 0.00 | 78 | 1009.7 |
| 20260506004209 | 10 | 11 | 4.8 | 12.9 | 0.00 | 0.00 | 0.00 | 78 | 1009.8 |
| 20260506003717 | 10 | 70 | 4.8 | 12.9 | 0.00 | 0.00 | 0.00 | 78 | 1009.7 |
| 20260506002717 | 10 | 0 | 4.8 | 14.5 | 0.00 | 0.00 | 0.00 | 77 | 1009.9 |
| 20260506002210 | 9 | 54 | 6.4 | 14.5 | 0.00 | 0.00 | 0.00 | 77 | 1009.9 |
| 20260506001715 | 9 | 25 | 4.8 | 14.5 | 0.00 | 0.00 | 0.00 | 77 | 1009.9 |
| 20260506001208 | 9 | 5 | 4.8 | 14.5 | 0.00 | 0.00 | 0.00 | 78 | 1010.0 |
| 20260506000710 | 9 | 53 | 4.8 | 14.5 | 0.00 | 0.00 | 0.00 | 78 | 1010.1 |
| 20260505235717 | 9 | 9 | 4.8 | 17.7 | 0.00 | 0.00 | 0.00 | 77 | 1010.1 |
| 20260505235211 | 9 | 338 | 4.8 | 17.7 | 0.00 | 0.00 | 0.00 | 77 | 1010.2 |
| 20260505234216 | 9 | 41 | 6.4 | 16.1 | 0.00 | 0.00 | 0.00 | 76 | 1010.2 |
| 20260505233718 | 9 | 0 | 4.8 | 14.5 | 0.00 | 0.00 | 0.00 | 76 | 1010.2 |
| 20260505233211 | 9 | 341 | 4.8 | 14.5 | 0.00 | 0.00 | 0.00 | 76 | 1010.3 |
| 20260505232714 | 9 | 19 | 6.4 | 14.5 | 0.00 | 0.00 | 0.00 | 76 | 1010.4 |
| 20260505232218 | 9 | 40 | 4.8 | 14.5 | 0.00 | 0.00 | 0.00 | 75 | 1010.4 |
| 20260505231711 | 9 | 32 | 4.8 | 14.5 | 0.00 | 0.00 | 0.00 | 75 | 1010.4 |
| 20260505231215 | 9 | 9 | 4.8 | 14.5 | 0.00 | 0.00 | 0.00 | 75 | 1010.4 |
| 20260505230212 | 9 | 5 | 6.4 | 17.7 | 0.00 | 0.00 | 0.00 | 75 | 1010.5 |
| 20260505225713 | 10 | 100 | 6.4 | 17.7 | 0.00 | 0.00 | 0.00 | 75 | 1010.5 |
| 20260505225205 | 10 | 325 | 6.4 | 17.7 | 0.00 | 0.00 | 0.00 | 75 | 1010.5 |
| 20260505224211 | 10 | 344 | 4.8 | 19.3 | 0.00 | 0.00 | 0.00 | 74 | 1010.4 |
| 20260505223712 | 10 | 38 | 4.8 | 19.3 | 0.00 | 0.00 | 0.00 | 74 | 1010.4 |
| 20260505223212 | 10 | 321 | 6.4 | 19.3 | 0.00 | 0.00 | 0.00 | 74 | 1010.5 |
| 20260505222707 | 10 | 0 | 6.4 | 19.3 | 0.00 | 0.00 | 0.00 | 74 | 1010.5 |
| 20260505221717 | 10 | 36 | 6.4 | 19.3 | 0.00 | 0.00 | 0.00 | 73 | 1010.6 |
| 20260505221219 | 10 | 336 | 6.4 | 16.1 | 0.00 | 0.00 | 0.00 | 73 | 1010.6 |
| 20260505220248 | 10 | 5 | 4.8 | 19.3 | 0.00 | 0.00 | 0.00 | 73 | 1010.7 |
| 20260505215712 | 10 | 355 | 4.8 | 19.3 | 0.00 | 0.00 | 0.00 | 73 | 1010.7 |
| 20260505214708 | 10 | 44 | 6.4 | 16.1 | 0.00 | 0.00 | 0.00 | 73 | 1010.8 |
| 20260505214207 | 10 | 51 | 4.8 | 16.1 | 0.00 | 0.00 | 0.00 | 73 | 1010.8 |
| 20260505213705 | 10 | 52 | 4.8 | 17.7 | 0.00 | 0.00 | 0.00 | 73 | 1010.9 |
| 20260505213215 | 10 | 43 | 6.4 | 17.7 | 0.00 | 0.00 | 0.00 | 73 | 1010.8 |
| 20260505212712 | 10 | 33 | 6.4 | 14.5 | 0.00 | 0.00 | 0.00 | 73 | 1010.8 |
| 20260505212207 | 10 | 345 | 4.8 | 14.5 | 0.00 | 0.00 | 0.00 | 73 | 1010.9 |
| 20260505211709 | 10 | 337 | 4.8 | 14.5 | 0.00 | 0.00 | 0.00 | 73 | 1010.8 |
| 20260505211213 | 10 | 0 | 4.8 | 14.5 | 0.00 | 0.00 | 0.00 | 73 | 1010.9 |
| 20260505210716 | 10 | 57 | 6.4 | 14.5 | 0.00 | 0.00 | 0.00 | 73 | 1010.9 |
| 20260505210214 | 10 | 79 | 4.8 | 14.5 | 0.00 | 0.00 | 0.00 | 73 | 1011.0 |
| 20260505205718 | 10 | 38 | 4.8 | 17.7 | 0.00 | 0.00 | 0.00 | 73 | 1011.0 |
| 20260505205216 | 10 | 29 | 4.8 | 17.7 | 0.00 | 0.00 | 0.00 | 73 | 1011.0 |
| 20260505204712 | 10 | 62 | 6.4 | 16.1 | 0.00 | 0.00 | 0.00 | 73 | 1011.0 |
| 20260505204208 | 10 | 48 | 4.8 | 19.3 | 0.00 | 0.00 | 0.00 | 73 | 1011.0 |
| 20260505203706 | 10 | 333 | 6.4 | 19.3 | 0.00 | 0.00 | 0.00 | 73 | 1010.9 |
| 20260505203210 | 10 | 31 | 6.4 | 19.3 | 0.00 | 0.00 | 0.00 | 73 | 1011.0 |
| 20260505202707 | 11 | 49 | 6.4 | 17.7 | 0.00 | 0.00 | 0.00 | 72 | 1011.0 |
| 20260505202219 | 11 | 57 | 8.0 | 17.7 | 0.00 | 0.00 | 0.00 | 72 | 1010.9 |
| 20260505201717 | 11 | 22 | 8.0 | 16.1 | 0.00 | 0.00 | 0.00 | 72 | 1010.9 |
| 20260505201214 | 11 | 66 | 6.4 | 16.1 | 0.00 | 0.00 | 0.00 | 72 | 1010.9 |
| 20260505200708 | 11 | 31 | 6.4 | 16.1 | 0.00 | 0.00 | 0.00 | 72 | 1010.9 |
| 20260505200212 | 11 | 55 | 6.4 | 17.7 | 0.00 | 0.00 | 0.00 | 72 | 1010.8 |
| 20260505195716 | 11 | 20 | 6.4 | 19.3 | 0.00 | 0.00 | 0.00 | 73 | 1010.8 |
| 20260505195216 | 11 | 38 | 8.0 | 22.5 | 0.00 | 0.00 | 0.00 | 73 | 1010.7 |
| 20260505194706 | 11 | 42 | 9.7 | 22.5 | 0.00 | 0.00 | 0.00 | 73 | 1010.7 |
| 20260505194207 | 11 | 53 | 9.7 | 19.3 | 0.00 | 0.00 | 0.00 | 73 | 1010.6 |
| 20260505193707 | 11 | 55 | 6.4 | 24.1 | 0.00 | 0.00 | 0.00 | 74 | 1010.5 |
| 20260505193205 | 11 | 0 | 6.4 | 24.1 | 0.00 | 0.00 | 0.00 | 74 | 1010.4 |
| 20260505192216 | 11 | 15 | 6.4 | 19.3 | 0.00 | 0.00 | 0.00 | 73 | 1010.3 |
| 20260505191709 | 11 | 334 | 6.4 | 22.5 | 0.00 | 0.00 | 0.00 | 73 | 1010.3 |
| 20260505191216 | 11 | 27 | 8.0 | 22.5 | 0.00 | 0.00 | 0.00 | 73 | 1010.3 |
| 20260505190708 | 11 | 28 | 8.0 | 22.5 | 0.00 | 0.00 | 0.00 | 73 | 1010.2 |
| 20260505190212 | 11 | 339 | 9.7 | 25.7 | 0.00 | 0.00 | 0.00 | 74 | 1010.2 |
| 20260505185714 | 12 | 21 | 8.0 | 25.7 | 0.00 | 0.00 | 0.00 | 74 | 1010.1 |
| 20260505185219 | 12 | 13 | 8.0 | 25.7 | 0.00 | 0.00 | 0.00 | 74 | 1010.1 |
| 20260505184714 | 12 | 70 | 9.7 | 24.1 | 0.00 | 0.00 | 0.00 | 74 | 1010.1 |
| 20260505183709 | 12 | 23 | 9.7 | 27.4 | 0.00 | 0.00 | 0.00 | 73 | 1009.9 |
| 20260505183206 | 12 | 347 | 11.3 | 27.4 | 0.00 | 0.00 | 0.00 | 73 | 1010.0 |
| 20260505182718 | 12 | 5 | 12.9 | 27.4 | 0.00 | 0.00 | 0.00 | 73 | 1010.0 |
| 20260505181715 | 12 | 327 | 11.3 | 24.1 | 0.00 | 0.00 | 0.00 | 73 | 1009.9 |
| 20260505181209 | 12 | 36 | 11.3 | 24.1 | 0.00 | 0.00 | 0.00 | 73 | 1009.9 |
| 20260505180212 | 12 | 355 | 12.9 | 27.4 | 0.00 | 0.00 | 0.00 | 73 | 1009.9 |
| 20260505175716 | 12 | 318 | 11.3 | 27.4 | 0.00 | 0.00 | 0.00 | 72 | 1010.0 |
| 20260505174710 | 12 | 333 | 12.9 | 27.4 | 0.00 | 0.00 | 0.00 | 72 | 1010.0 |
| 20260505174208 | 12 | 338 | 14.5 | 27.4 | 0.00 | 0.00 | 0.00 | 72 | 1010.0 |
| 20260505173718 | 12 | 331 | 12.9 | 25.7 | 0.00 | 0.00 | 0.00 | 71 | 1010.0 |
| 20260505172706 | 12 | 9 | 12.9 | 25.7 | 0.00 | 0.00 | 0.00 | 71 | 1010.0 |
| 20260505172211 | 12 | 32 | 11.3 | 24.1 | 0.00 | 0.00 | 0.00 | 72 | 1010.0 |
| 20260505171706 | 12 | 328 | 11.3 | 29.0 | 0.00 | 0.00 | 0.00 | 72 | 1010.1 |
| 20260505171237 | 12 | 5 | 12.9 | 29.0 | 0.00 | 0.00 | 0.00 | 73 | 1010.0 |
| 20260505170206 | 12 | 331 | 11.3 | 29.0 | 0.00 | 0.00 | 0.00 | 72 | 1010.2 |
| 20260505165711 | 12 | 348 | 11.3 | 29.0 | 0.00 | 0.00 | 0.00 | 72 | 1010.1 |
| 20260505165217 | 12 | 20 | 14.5 | 30.6 | 0.00 | 0.00 | 0.00 | 72 | 1010.2 |
| 20260505164720 | 12 | 22 | 12.9 | 30.6 | 0.00 | 0.00 | 0.00 | 72 | 1010.2 |
| 20260505164214 | 12 | 57 | 14.5 | 25.7 | 0.00 | 0.00 | 0.00 | 71 | 1010.2 |
| 20260505163717 | 12 | 15 | 12.9 | 29.0 | 0.00 | 0.00 | 0.00 | 71 | 1010.2 |
| 20260505163210 | 12 | 9 | 11.3 | 29.0 | 0.00 | 0.00 | 0.00 | 71 | 1010.2 |
| 20260505162708 | 12 | 324 | 11.3 | 29.0 | 0.00 | 0.00 | 0.00 | 71 | 1010.1 |
| 20260505162212 | 13 | 36 | 11.3 | 27.4 | 0.00 | 0.00 | 0.00 | 70 | 1010.2 |
| 20260505161705 | 13 | 17 | 12.9 | 27.4 | 0.00 | 0.00 | 0.00 | 70 | 1010.2 |
| 20260505161214 | 13 | 342 | 11.3 | 27.4 | 0.00 | 0.00 | 0.00 | 69 | 1010.2 |
| 20260505160245 | 13 | 344 | 14.5 | 27.4 | 0.00 | 0.00 | 0.00 | 70 | 1010.2 |
| 20260505152716 | 13 | 0 | 12.9 | 27.4 | 0.00 | 0.00 | 0.00 | 69 | 1010.2 |
| 20260505151236 | 13 | 355 | 12.9 | 32.2 | 0.00 | 0.00 | 0.00 | 69 | 1010.2 |
| 20260505150711 | 13 | 40 | 14.5 | 32.2 | 0.00 | 0.00 | 0.00 | 68 | 1010.3 |
| 20260505150213 | 13 | 28 | 14.5 | 32.2 | 0.00 | 0.00 | 0.00 | 68 | 1010.2 |
| 20260505140220 | 13 | 355 | 14.5 | 25.7 | 0.00 | 0.00 | 0.00 | 65 | 1010.3 |
| 20260505130218 | 14 | 344 | 12.9 | 33.8 | 0.00 | 0.00 | 0.00 | 64 | 1010.6 |
| 20260505124707 | 14 | 32 | 14.5 | 25.7 | 0.00 | 0.00 | 0.00 | 66 | 1010.6 |
| 20260505124206 | 14 | 338 | 14.5 | 27.4 | 0.00 | 0.00 | 0.00 | 67 | 1010.6 |
| 20260505123719 | 14 | 339 | 14.5 | 29.0 | 0.00 | 0.00 | 0.00 | 67 | 1010.7 |
| 20260505122708 | 15 | 5 | 11.3 | 30.6 | 0.00 | 0.00 | 0.00 | 66 | 1010.6 |
| 20260505122214 | 14 | 5 | 14.5 | 30.6 | 0.00 | 0.00 | 0.00 | 66 | 1010.7 |
| 20260505121744 | 14 | 335 | 12.9 | 29.0 | 0.00 | 0.00 | 0.00 | 65 | 1010.6 |
| 20260505120712 | 14 | 318 | 14.5 | 29.0 | 0.00 | 0.00 | 0.00 | 67 | 1010.6 |
| 20260505115715 | 14 | 345 | 11.3 | 24.1 | 0.00 | 0.00 | 0.00 | 64 | 1010.6 |
| 20260505115218 | 15 | 9 | 11.3 | 27.4 | 0.00 | 0.00 | 0.00 | 66 | 1010.7 |
| 20260505114713 | 14 | 326 | 11.3 | 27.4 | 0.00 | 0.00 | 0.00 | 66 | 1010.7 |
| 20260505114208 | 14 | 331 | 11.3 | 27.4 | 0.00 | 0.00 | 0.00 | 66 | 1010.8 |
| 20260505113713 | 14 | 307 | 12.9 | 25.7 | 0.00 | 0.00 | 0.00 | 66 | 1010.8 |
| 20260505113215 | 14 | 317 | 12.9 | 25.7 | 0.00 | 0.00 | 0.00 | 66 | 1010.9 |
| 20260505112739 | 14 | 279 | 11.3 | 25.7 | 0.00 | 0.00 | 0.00 | 65 | 1010.9 |
| 20260505112217 | 15 | 262 | 12.9 | 25.7 | 0.00 | 0.00 | 0.00 | 67 | 1010.9 |
| 20260505111710 | 14 | 348 | 12.9 | 25.7 | 0.00 | 0.00 | 0.00 | 65 | 1011.0 |
| 20260505111206 | 15 | 344 | 11.3 | 25.7 | 0.00 | 0.00 | 0.00 | 65 | 1011.0 |
| 20260505110711 | 14 | 288 | 9.7 | 25.7 | 0.00 | 0.00 | 0.00 | 67 | 1011.0 |
| 20260505110206 | 14 | 327 | 11.3 | 24.1 | 0.00 | 0.00 | 0.00 | 66 | 1011.0 |
| 20260505102211 | 15 | 5 | 8.0 | 20.9 | 0.00 | 0.00 | 0.00 | 64 | 1011.3 |
| 20260505101714 | 15 | 86 | 8.0 | 20.9 | 0.00 | 0.00 | 0.00 | 60 | 1011.3 |
| 20260505101208 | 15 | 38 | 9.7 | 20.9 | 0.00 | 0.00 | 0.00 | 56 | 1011.4 |
| 20260505100708 | 15 | 0 | 9.7 | 24.1 | 0.00 | 0.00 | 0.00 | 56 | 1011.4 |
| 20260505100215 | 15 | 58 | 9.7 | 24.1 | 0.00 | 0.00 | 0.00 | 58 | 1011.5 |
| 20260505095717 | 15 | 46 | 9.7 | 19.3 | 0.00 | 0.00 | 0.00 | 57 | 1011.5 |
| 20260505095206 | 15 | 48 | 8.0 | 19.3 | 0.00 | 0.00 | 0.00 | 59 | 1011.5 |
| 20260505094710 | 15 | 355 | 8.0 | 19.3 | 0.00 | 0.00 | 0.00 | 58 | 1011.5 |
| 20260505094218 | 14 | 46 | 9.7 | 19.3 | 0.00 | 0.00 | 0.00 | 58 | 1011.5 |
| 20260505093717 | 14 | 44 | 8.0 | 19.3 | 0.00 | 0.00 | 0.00 | 58 | 1011.5 |
| 20260505093218 | 14 | 56 | 8.0 | 22.5 | 0.00 | 0.00 | 0.00 | 60 | 1011.5 |
| 20260505092712 | 14 | 355 | 8.0 | 22.5 | 0.00 | 0.00 | 0.00 | 61 | 1011.5 |
| 20260505092216 | 14 | 42 | 9.7 | 22.5 | 0.00 | 0.00 | 0.00 | 62 | 1011.6 |
| 20260505091719 | 14 | 50 | 11.3 | 20.9 | 0.00 | 0.00 | 0.00 | 61 | 1011.7 |
| 20260505091220 | 14 | 86 | 9.7 | 19.3 | 0.00 | 0.00 | 0.00 | 61 | 1011.6 |
| 20260505090713 | 14 | 0 | 9.7 | 19.3 | 0.00 | 0.00 | 0.00 | 62 | 1011.5 |
| 20260505085707 | 14 | 41 | 8.0 | 20.9 | 0.00 | 0.00 | 0.00 | 62 | 1011.7 |
| 20260505084710 | 13 | 48 | 9.7 | 22.5 | 0.00 | 0.00 | 0.00 | 62 | 1011.6 |
| 20260505084216 | 13 | 43 | 9.7 | 22.5 | 0.00 | 0.00 | 0.00 | 61 | 1011.7 |
| 20260505083716 | 13 | 42 | 9.7 | 22.5 | 0.00 | 0.00 | 0.00 | 62 | 1011.6 |
| 20260505082713 | 13 | 87 | 9.7 | 20.9 | 0.00 | 0.00 | 0.00 | 64 | 1011.6 |
| 20260505082210 | 13 | 42 | 11.3 | 22.5 | 0.00 | 0.00 | 0.00 | 65 | 1011.6 |
| 20260505081711 | 13 | 46 | 9.7 | 22.5 | 0.00 | 0.00 | 0.00 | 66 | 1011.6 |
| 20260505081212 | 12 | 28 | 9.7 | 25.7 | 0.00 | 0.00 | 0.00 | 67 | 1011.6 |
| 20260505080712 | 12 | 77 | 11.3 | 25.7 | 0.00 | 0.00 | 0.00 | 69 | 1011.5 |
| 20260505080211 | 12 | 78 | 11.3 | 25.7 | 0.00 | 0.00 | 0.00 | 68 | 1011.5 |
| 20260505075720 | 12 | 74 | 11.3 | 22.5 | 0.00 | 0.00 | 0.00 | 68 | 1011.5 |
| 20260505075207 | 12 | 105 | 12.9 | 22.5 | 0.00 | 0.00 | 0.00 | 70 | 1011.5 |
| 20260505074707 | 12 | 58 | 11.3 | 22.5 | 0.00 | 0.00 | 0.00 | 69 | 1011.6 |
| 20260505074214 | 12 | 66 | 11.3 | 22.5 | 0.00 | 0.00 | 0.00 | 70 | 1011.7 |
| 20260505073212 | 12 | 71 | 9.7 | 24.1 | 0.00 | 0.00 | 0.00 | 72 | 1011.7 |
| 20260505072713 | 12 | 327 | 8.0 | 24.1 | 0.00 | 0.00 | 0.00 | 71 | 1011.7 |
| 20260505072212 | 12 | 351 | 6.4 | 24.1 | 0.00 | 0.00 | 0.00 | 73 | 1011.8 |
| 20260505071720 | 12 | 59 | 8.0 | 24.1 | 0.00 | 0.00 | 0.00 | 73 | 1011.8 |
| 20260505071218 | 12 | 47 | 6.4 | 22.5 | 0.00 | 0.00 | 0.00 | 74 | 1011.8 |
| 20260505070705 | 12 | 337 | 8.0 | 22.5 | 0.00 | 0.00 | 0.00 | 75 | 1012.0 |
| 20260505070211 | 12 | 30 | 9.7 | 22.5 | 0.00 | 0.00 | 0.00 | 75 | 1012.0 |
| 20260505065708 | 11 | 43 | 8.0 | 19.3 | 0.00 | 0.00 | 0.00 | 76 | 1012.0 |
| 20260505065209 | 11 | 26 | 6.4 | 16.1 | 0.00 | 0.00 | 0.00 | 78 | 1012.0 |
| 20260505064714 | 11 | 65 | 6.4 | 16.1 | 0.00 | 0.00 | 0.00 | 79 | 1012.1 |
| 20260505064214 | 11 | 50 | 6.4 | 16.1 | 0.00 | 0.00 | 0.00 | 81 | 1012.1 |
| 20260505063713 | 10 | 70 | 4.8 | 19.3 | 0.00 | 0.00 | 0.00 | 81 | 1012.1 |
| 20260505063207 | 10 | 57 | 6.4 | 19.3 | 0.00 | 0.00 | 0.00 | 82 | 1012.2 |
| 20260505062707 | 10 | 29 | 6.4 | 19.3 | 0.00 | 0.00 | 0.00 | 82 | 1012.3 |
| 20260505062218 | 10 | 95 | 6.4 | 16.1 | 0.00 | 0.00 | 0.00 | 83 | 1012.3 |
| 20260505061708 | 10 | 9 | 8.0 | 19.3 | 0.00 | 0.00 | 0.00 | 83 | 1012.2 |
| 20260505061221 | 10 | 69 | 6.4 | 19.3 | 0.00 | 0.00 | 0.00 | 83 | 1012.2 |
| 20260505055712 | 10 | 79 | 4.8 | 16.1 | 0.00 | 0.00 | 0.00 | 84 | 1012.3 |
| 20260505055229 | 10 | 52 | 4.8 | 17.7 | 0.00 | 0.00 | 0.00 | 84 | 1012.3 |
| 20260505054734 | 10 | 315 | 8.0 | 19.3 | 0.00 | 0.00 | 0.00 | 84 | 1012.3 |
| 20260505054209 | 10 | 28 | 8.0 | 19.3 | 0.00 | 0.00 | 0.00 | 84 | 1012.3 |
| 20260505053737 | 10 | 63 | 6.4 | 19.3 | 0.00 | 0.00 | 0.00 | 84 | 1012.3 |
| 20260505053214 | 10 | 355 | 6.4 | 19.3 | 0.00 | 0.00 | 0.00 | 84 | 1012.3 |
| 20260505052707 | 10 | 46 | 6.4 | 19.3 | 0.00 | 0.00 | 0.00 | 84 | 1012.2 |
| 20260505052210 | 10 | 5 | 4.8 | 16.1 | 0.00 | 0.00 | 0.00 | 84 | 1012.1 |
| 20260505051714 | 10 | 327 | 4.8 | 16.1 | 0.00 | 0.00 | 0.00 | 84 | 1012.2 |
| 20260505051216 | 10 | 349 | 4.8 | 14.5 | 0.00 | 0.00 | 0.00 | 84 | 1012.0 |
| 20260505050209 | 10 | 331 | 4.8 | 14.5 | 0.00 | 0.00 | 0.00 | 85 | 1012.1 |